Time,TemperatureF,DewpointF,PressureIn,WindDirection,WindDirectionDegrees,WindSpeedMPH,WindSpeedGustMPH,Humidity,HourlyPrecipIn,Conditions,Clouds,dailyrainin,SoftwareType,DateUTC
2013-05-11 00:02:00,60.8,48.9,30.11,North,0,0.0,2.0,65,0.00,,,0.00,meteohub,2013-05-11 07:02:00,
2013-05-11 00:07:00,60.6,49.3,30.11,North,0,0.0,2.0,66,0.00,,,0.00,meteohub,2013-05-11 07:07:00,
2013-05-11 00:12:00,60.6,49.3,30.12,North,0,0.0,2.0,66,0.00,,,0.00,meteohub,2013-05-11 07:12:00,
2013-05-11 00:17:00,60.4,49.1,30.12,North,0,0.0,1.0,66,0.00,,,0.00,meteohub,2013-05-11 07:17:00,
2013-05-11 00:22:00,60.3,48.9,30.12,North,0,0.0,0.0,66,0.00,,,0.00,meteohub,2013-05-11 07:22:00,
2013-05-11 00:27:00,60.1,48.7,30.12,North,0,0.0,0.0,66,0.00,,,0.00,meteohub,2013-05-11 07:27:00,
2013-05-11 00:32:00,59.7,48.7,30.12,North,0,0.0,0.0,67,0.00,,,0.00,meteohub,2013-05-11 07:32:00,
2013-05-11 00:37:00,59.7,49.1,30.12,NE,45,2.0,0.0,68,0.00,,,0.00,meteohub,2013-05-11 07:37:00,
2013-05-11 00:42:00,59.7,49.5,30.12,NE,45,2.0,2.0,69,0.00,,,0.00,meteohub,2013-05-11 07:42:00,
2013-05-11 00:47:00,59.7,49.1,30.12,NE,45,0.0,2.0,68,0.00,,,0.00,meteohub,2013-05-11 07:47:00,
2013-05-11 00:52:00,59.5,49.3,30.12,NE,45,0.0,2.0,69,0.00,,,0.00,meteohub,2013-05-11 07:52:00,
2013-05-11 00:57:00,59.2,49.1,30.13,NE,45,0.0,2.0,69,0.00,,,0.00,meteohub,2013-05-11 07:57:00,
2013-05-11 01:02:00,58.8,48.7,30.13,NE,45,2.0,0.0,69,0.00,,,0.00,meteohub,2013-05-11 08:02:00,
2013-05-11 01:07:00,58.8,49.1,30.13,South,180,0.0,2.0,70,0.00,,,0.00,meteohub,2013-05-11 08:07:00,
2013-05-11 01:12:00,58.8,49.5,30.13,South,180,0.0,2.0,71,0.00,,,0.00,meteohub,2013-05-11 08:12:00,
2013-05-11 01:17:00,58.5,49.1,30.14,South,180,0.0,2.0,71,0.00,,,0.00,meteohub,2013-05-11 08:17:00,
2013-05-11 01:22:00,58.5,49.1,30.14,South,180,0.0,1.0,71,0.00,,,0.00,meteohub,2013-05-11 08:22:00,
2013-05-11 01:27:00,58.3,49.3,30.13,North,0,0.0,0.0,72,0.00,,,0.00,meteohub,2013-05-11 08:27:00,
2013-05-11 01:32:00,58.3,49.3,30.13,North,0,0.0,0.0,72,0.00,,,0.00,meteohub,2013-05-11 08:32:00,
2013-05-11 01:37:00,58.1,49.5,30.13,North,0,0.0,0.0,73,0.00,,,0.00,meteohub,2013-05-11 08:37:00,
2013-05-11 01:42:00,57.9,49.3,30.14,North,0,0.0,0.0,73,0.00,,,0.00,meteohub,2013-05-11 08:42:00,
2013-05-11 01:47:00,57.7,49.5,30.13,North,0,0.0,0.0,74,0.00,,,0.00,meteohub,2013-05-11 08:47:00,
2013-05-11 01:52:00,57.9,49.6,30.13,North,0,0.0,0.0,74,0.00,,,0.00,meteohub,2013-05-11 08:52:00,
2013-05-11 01:57:00,57.9,49.6,30.13,NE,45,0.0,0.0,74,0.00,,,0.00,meteohub,2013-05-11 08:57:00,
2013-05-11 02:02:00,57.9,49.6,30.13,NE,45,0.0,0.0,74,0.00,,,0.00,meteohub,2013-05-11 09:02:00,
2013-05-11 02:07:00,57.9,49.6,30.14,NE,45,0.0,0.0,74,0.00,,,0.00,meteohub,2013-05-11 09:07:00,
2013-05-11 02:12:00,57.6,49.3,30.13,NE,45,0.0,0.0,74,0.00,,,0.00,meteohub,2013-05-11 09:12:00,
2013-05-11 02:17:00,57.4,49.5,30.13,NE,45,0.0,0.0,75,0.00,,,0.00,meteohub,2013-05-11 09:17:00,
2013-05-11 02:22:00,57.2,49.3,30.14,NE,45,0.0,0.0,75,0.00,,,0.00,meteohub,2013-05-11 09:22:00,
2013-05-11 02:27:00,56.8,49.3,30.14,NE,45,0.0,0.0,76,0.00,,,0.00,meteohub,2013-05-11 09:27:00,
2013-05-11 02:32:00,56.8,49.3,30.13,NE,45,0.0,0.0,76,0.00,,,0.00,meteohub,2013-05-11 09:32:00,
2013-05-11 02:37:00,56.5,49.3,30.13,NE,45,0.0,0.0,77,0.00,,,0.00,meteohub,2013-05-11 09:37:00,
2013-05-11 02:42:00,56.5,49.3,30.14,NE,45,0.0,0.0,77,0.00,,,0.00,meteohub,2013-05-11 09:42:00,
2013-05-11 02:47:00,56.3,49.1,30.13,North,0,0.0,0.0,77,0.00,,,0.00,meteohub,2013-05-11 09:47:00,
2013-05-11 02:52:00,56.3,49.5,30.13,North,0,0.0,0.0,78,0.00,,,0.00,meteohub,2013-05-11 09:52:00,
2013-05-11 02:57:00,56.3,49.5,30.13,North,0,0.0,0.0,78,0.00,,,0.00,meteohub,2013-05-11 09:57:00,
2013-05-11 03:05:00,56.5,49.6,30.13,North,0,0.0,0.0,78,0.00,,,0.00,meteohub,2013-05-11 10:05:00,
2013-05-11 03:10:00,56.5,49.6,30.13,North,0,0.0,0.0,78,0.00,,,0.00,meteohub,2013-05-11 10:10:00,
2013-05-11 03:15:00,56.5,49.6,30.13,NE,45,1.0,0.0,78,0.00,,,0.00,meteohub,2013-05-11 10:15:00,
2013-05-11 03:20:00,56.7,49.8,30.13,SE,135,0.0,1.0,78,0.00,,,0.00,meteohub,2013-05-11 10:20:00,
2013-05-11 03:25:00,56.8,50.0,30.13,East,90,0.0,1.0,78,0.00,,,0.00,meteohub,2013-05-11 10:25:00,
2013-05-11 03:30:00,57.2,50.4,30.13,NW,315,0.0,1.0,78,0.00,,,0.00,meteohub,2013-05-11 10:30:00,
2013-05-11 03:35:00,57.2,50.4,30.12,NW,315,0.0,1.0,78,0.00,,,0.00,meteohub,2013-05-11 10:35:00,
2013-05-11 03:40:00,57.2,50.4,30.13,SE,135,2.0,2.0,78,0.00,,,0.00,meteohub,2013-05-11 10:40:00,
2013-05-11 03:46:00,57.2,50.4,30.12,South,180,0.0,3.0,78,0.00,,,0.00,meteohub,2013-05-11 10:46:00,
2013-05-11 03:51:00,57.4,50.2,30.12,South,180,4.0,4.0,77,0.00,,,0.00,meteohub,2013-05-11 10:51:00,
2013-05-11 03:56:00,57.4,49.8,30.12,South,180,4.0,4.0,76,0.00,,,0.00,meteohub,2013-05-11 10:56:00,
2013-05-11 04:01:00,57.6,50.0,30.12,SE,135,1.0,4.0,76,0.00,,,0.00,meteohub,2013-05-11 11:01:00,
2013-05-11 04:06:00,57.7,49.8,30.12,SW,225,2.0,4.0,75,0.00,,,0.00,meteohub,2013-05-11 11:06:00,
2013-05-11 04:11:00,57.9,49.6,30.12,South,180,2.0,4.0,74,0.00,,,0.00,meteohub,2013-05-11 11:11:00,
2013-05-11 04:16:00,58.1,49.5,30.12,South,180,2.0,7.0,73,0.00,,,0.00,meteohub,2013-05-11 11:16:00,
2013-05-11 04:21:00,58.1,49.1,30.12,SW,225,6.0,7.0,72,0.00,,,0.00,meteohub,2013-05-11 11:21:00,
2013-05-11 04:26:00,58.3,48.9,30.12,SW,225,2.0,7.0,71,0.00,,,0.00,meteohub,2013-05-11 11:26:00,
2013-05-11 04:31:00,58.6,49.3,30.12,South,180,4.0,6.0,71,0.00,,,0.00,meteohub,2013-05-11 11:31:00,
2013-05-11 04:37:00,58.6,48.9,30.12,SW,225,3.0,6.0,70,0.00,,,0.00,meteohub,2013-05-11 11:37:00,
2013-05-11 04:42:00,58.5,48.7,30.12,SW,225,2.0,7.0,70,0.00,,,0.00,meteohub,2013-05-11 11:42:00,
2013-05-11 04:47:00,58.3,48.6,30.12,South,180,2.0,7.0,70,0.00,,,0.00,meteohub,2013-05-11 11:47:00,
2013-05-11 04:52:00,58.1,48.4,30.12,SW,225,4.0,5.0,70,0.00,,,0.00,meteohub,2013-05-11 11:52:00,
2013-05-11 04:57:00,58.1,48.7,30.12,NW,315,3.0,4.0,71,0.00,,,0.00,meteohub,2013-05-11 11:57:00,
2013-05-11 05:02:00,58.1,48.0,30.12,West,270,4.0,4.0,69,0.00,,,0.00,meteohub,2013-05-11 12:02:00,
2013-05-11 05:07:00,57.9,47.5,30.13,SW,225,4.0,7.0,68,0.00,,,0.00,meteohub,2013-05-11 12:07:00,
2013-05-11 05:12:00,58.1,46.8,30.12,SW,225,3.0,7.0,66,0.00,,,0.00,meteohub,2013-05-11 12:12:00,
2013-05-11 05:17:00,57.7,46.0,30.12,SW,225,3.0,7.0,65,0.00,,,0.00,meteohub,2013-05-11 12:17:00,
2013-05-11 05:22:00,57.2,45.5,30.12,SE,135,1.0,4.0,65,0.00,,,0.00,meteohub,2013-05-11 12:22:00,
2013-05-11 05:27:00,57.0,45.3,30.12,WNW,293,2.0,4.0,65,0.00,,,0.00,meteohub,2013-05-11 12:27:00,
2013-05-11 05:32:00,56.8,45.1,30.12,SW,225,3.0,4.0,65,0.00,,,0.00,meteohub,2013-05-11 12:32:00,
2013-05-11 05:37:00,56.7,45.0,30.11,SW,225,2.0,3.0,65,0.00,,,0.00,meteohub,2013-05-11 12:37:00,
2013-05-11 05:42:00,56.5,44.8,30.11,South,180,1.0,3.0,65,0.00,,,0.00,meteohub,2013-05-11 12:42:00,
2013-05-11 05:47:00,56.5,44.8,30.10,South,180,1.0,3.0,65,0.00,,,0.00,meteohub,2013-05-11 12:47:00,
2013-05-11 05:52:00,56.5,44.8,30.10,SE,135,2.0,3.0,65,0.00,,,0.00,meteohub,2013-05-11 12:52:00,
2013-05-11 05:57:00,56.3,44.2,30.11,NE,45,0.0,2.0,64,0.00,,,0.00,meteohub,2013-05-11 12:57:00,
2013-05-11 06:02:00,56.3,44.6,30.11,NE,45,0.0,2.0,65,0.00,,,0.00,meteohub,2013-05-11 13:02:00,
2013-05-11 06:07:00,56.5,44.8,30.11,South,180,0.0,2.0,65,0.00,,,0.00,meteohub,2013-05-11 13:07:00,
2013-05-11 06:12:00,56.7,45.0,30.12,North,0,0.0,1.0,65,0.00,,,0.00,meteohub,2013-05-11 13:12:00,
2013-05-11 06:17:00,56.8,44.8,30.12,SE,135,4.0,4.0,64,0.00,,,0.00,meteohub,2013-05-11 13:17:00,
2013-05-11 06:22:00,57.2,44.8,30.12,SW,225,2.0,5.0,63,0.00,,,0.00,meteohub,2013-05-11 13:22:00,
2013-05-11 06:27:00,57.6,44.6,30.12,South,180,2.0,5.0,62,0.00,,,0.00,meteohub,2013-05-11 13:27:00,
2013-05-11 06:32:00,57.7,44.8,30.12,South,180,2.0,5.0,62,0.00,,,0.00,meteohub,2013-05-11 13:32:00,
2013-05-11 06:37:00,58.1,45.1,30.12,SE,135,0.0,4.0,62,0.00,,,0.00,meteohub,2013-05-11 13:37:00,
2013-05-11 06:42:00,58.3,45.0,30.12,SW,225,4.0,4.0,61,0.00,,,0.00,meteohub,2013-05-11 13:42:00,
2013-05-11 06:47:00,58.6,45.3,30.12,SE,135,2.0,4.0,61,0.00,,,0.00,meteohub,2013-05-11 13:47:00,
2013-05-11 06:52:00,58.6,45.3,30.12,South,180,3.0,4.0,61,0.00,,,0.00,meteohub,2013-05-11 13:52:00,
2013-05-11 06:57:00,59.0,45.5,30.12,SE,135,4.0,4.0,61,0.00,,,0.00,meteohub,2013-05-11 13:57:00,
2013-05-11 07:02:00,59.4,45.5,30.12,SW,225,3.0,5.0,60,0.00,,,0.00,meteohub,2013-05-11 14:02:00,
2013-05-11 07:07:00,59.5,45.7,30.12,South,180,2.0,5.0,60,0.00,,,0.00,meteohub,2013-05-11 14:07:00,
2013-05-11 07:12:00,59.7,45.9,30.12,NW,315,3.0,5.0,60,0.00,,,0.00,meteohub,2013-05-11 14:12:00,
2013-05-11 07:17:00,59.9,46.0,30.12,West,270,5.0,5.0,60,0.00,,,0.00,meteohub,2013-05-11 14:17:00,
2013-05-11 07:22:00,60.1,45.7,30.12,SW,225,4.0,4.0,59,0.00,,,0.00,meteohub,2013-05-11 14:22:00,
2013-05-11 07:27:00,60.3,45.9,30.13,South,180,3.0,6.0,59,0.00,,,0.00,meteohub,2013-05-11 14:27:00,
2013-05-11 07:32:00,60.1,45.7,30.12,SW,225,2.0,6.0,59,0.00,,,0.00,meteohub,2013-05-11 14:32:00,
2013-05-11 07:37:00,60.1,45.7,30.12,West,270,3.0,6.0,59,0.00,,,0.00,meteohub,2013-05-11 14:37:00,
2013-05-11 07:42:00,60.3,45.5,30.13,SW,225,4.0,5.0,58,0.00,,,0.00,meteohub,2013-05-11 14:42:00,
2013-05-11 07:47:00,60.3,45.9,30.13,South,180,4.0,5.0,59,0.00,,,0.00,meteohub,2013-05-11 14:47:00,
2013-05-11 07:52:00,60.4,45.7,30.12,West,270,2.0,4.0,58,0.00,,,0.00,meteohub,2013-05-11 14:52:00,
2013-05-11 07:57:00,60.8,45.9,30.13,South,180,1.0,4.0,58,0.00,,,0.00,meteohub,2013-05-11 14:57:00,
2013-05-11 08:02:00,61.5,46.2,30.12,SSW,203,3.0,4.0,57,0.00,,,0.00,meteohub,2013-05-11 15:02:00,
2013-05-11 08:07:00,61.9,46.0,30.12,SSW,203,3.0,5.0,56,0.00,,,0.00,meteohub,2013-05-11 15:07:00,
2013-05-11 08:12:00,62.4,46.6,30.12,SE,135,3.0,5.0,56,0.00,,,0.00,meteohub,2013-05-11 15:12:00,
2013-05-11 08:17:00,62.4,46.0,30.13,East,90,5.0,5.0,55,0.00,,,0.00,meteohub,2013-05-11 15:17:00,
2013-05-11 08:22:00,62.6,46.2,30.13,South,180,4.0,5.0,55,0.00,,,0.00,meteohub,2013-05-11 15:22:00,
2013-05-11 08:27:00,63.0,46.0,30.13,SW,225,4.0,5.0,54,0.00,,,0.00,meteohub,2013-05-11 15:27:00,
2013-05-11 08:32:00,62.8,45.3,30.13,South,180,2.0,5.0,53,0.00,,,0.00,meteohub,2013-05-11 15:32:00,
2013-05-11 08:37:00,63.1,46.2,30.13,South,180,4.0,4.0,54,0.00,,,0.00,meteohub,2013-05-11 15:37:00,
2013-05-11 08:42:00,63.3,46.4,30.13,South,180,2.0,4.0,54,0.00,,,0.00,meteohub,2013-05-11 15:42:00,
2013-05-11 08:47:00,63.3,45.9,30.13,SE,135,4.0,4.0,53,0.00,,,0.00,meteohub,2013-05-11 15:47:00,
2013-05-11 08:52:00,63.1,45.7,30.12,SE,135,2.0,5.0,53,0.00,,,0.00,meteohub,2013-05-11 15:52:00,
2013-05-11 08:57:00,63.3,45.9,30.12,SE,135,4.0,5.0,53,0.00,,,0.00,meteohub,2013-05-11 15:57:00,
2013-05-11 09:02:00,64.0,46.6,30.12,SE,135,4.0,5.0,53,0.00,,,0.00,meteohub,2013-05-11 16:02:00,
2013-05-11 09:07:00,64.8,46.8,30.12,South,180,5.0,6.0,52,0.00,,,0.00,meteohub,2013-05-11 16:07:00,
2013-05-11 09:12:00,65.8,46.8,30.12,SE,135,4.0,6.0,50,0.00,,,0.00,meteohub,2013-05-11 16:12:00,
2013-05-11 09:17:00,66.0,46.4,30.12,SE,135,4.0,6.0,49,0.00,,,0.00,meteohub,2013-05-11 16:17:00,
2013-05-11 09:22:00,66.7,46.9,30.11,SE,135,2.0,6.0,49,0.00,,,0.00,meteohub,2013-05-11 16:22:00,
2013-05-11 09:27:00,68.2,47.1,30.11,SW,225,6.0,6.0,47,0.00,,,0.00,meteohub,2013-05-11 16:27:00,
2013-05-11 09:32:00,69.4,47.1,30.11,SW,225,4.0,6.0,45,0.00,,,0.00,meteohub,2013-05-11 16:32:00,
2013-05-11 09:37:00,69.4,46.0,30.11,South,180,5.0,7.0,43,0.00,,,0.00,meteohub,2013-05-11 16:37:00,
2013-05-11 09:42:00,69.4,45.3,30.11,South,180,2.0,7.0,42,0.00,,,0.00,meteohub,2013-05-11 16:42:00,
2013-05-11 09:47:00,69.6,46.2,30.11,SE,135,2.0,5.0,43,0.00,,,0.00,meteohub,2013-05-11 16:47:00,
2013-05-11 09:52:00,69.4,46.0,30.11,SE,135,2.0,5.0,43,0.00,,,0.00,meteohub,2013-05-11 16:52:00,
2013-05-11 09:57:00,69.4,46.0,30.10,SW,225,4.0,4.0,43,0.00,,,0.00,meteohub,2013-05-11 16:57:00,
2013-05-11 10:02:00,70.2,47.3,30.10,South,180,2.0,4.0,44,0.00,,,0.00,meteohub,2013-05-11 17:02:00,
2013-05-11 10:07:00,70.7,46.4,30.10,West,270,1.0,4.0,42,0.00,,,0.00,meteohub,2013-05-11 17:07:00,
2013-05-11 10:12:00,70.5,46.4,30.09,West,270,2.0,4.0,42,0.00,,,0.00,meteohub,2013-05-11 17:12:00,
2013-05-11 10:17:00,70.9,47.8,30.09,SE,135,1.0,3.0,44,0.00,,,0.00,meteohub,2013-05-11 17:17:00,
2013-05-11 10:22:00,71.4,47.1,30.09,SW,225,2.0,2.0,42,0.00,,,0.00,meteohub,2013-05-11 17:22:00,
2013-05-11 10:27:00,72.1,47.8,30.09,East,90,2.0,3.0,42,0.00,,,0.00,meteohub,2013-05-11 17:27:00,
2013-05-11 10:32:00,72.7,47.7,30.09,SW,225,3.0,3.0,41,0.00,,,0.00,meteohub,2013-05-11 17:32:00,
2013-05-11 10:37:00,72.9,47.1,30.09,SW,225,2.0,4.0,40,0.00,,,0.00,meteohub,2013-05-11 17:37:00,
2013-05-11 10:42:00,72.1,47.8,30.09,SW,225,4.0,5.0,42,0.00,,,0.00,meteohub,2013-05-11 17:42:00,
2013-05-11 10:47:00,72.3,48.0,30.09,West,270,2.0,5.0,42,0.00,,,0.00,meteohub,2013-05-11 17:47:00,
2013-05-11 10:52:00,73.0,48.6,30.09,SE,135,2.0,4.0,42,0.00,,,0.00,meteohub,2013-05-11 17:52:00,
2013-05-11 10:57:00,73.2,47.5,30.08,SE,135,2.0,4.0,40,0.00,,,0.00,meteohub,2013-05-11 17:57:00,
2013-05-11 11:02:00,74.1,48.9,30.08,South,180,3.0,3.0,41,0.00,,,0.00,meteohub,2013-05-11 18:02:00,
2013-05-11 11:07:00,75.0,48.4,30.08,SE,135,2.0,3.0,39,0.00,,,0.00,meteohub,2013-05-11 18:07:00,
2013-05-11 11:12:00,75.2,47.8,30.08,SE,135,2.0,3.0,38,0.00,,,0.00,meteohub,2013-05-11 18:12:00,
2013-05-11 11:17:00,75.4,48.0,30.08,South,180,2.0,3.0,38,0.00,,,0.00,meteohub,2013-05-11 18:17:00,
2013-05-11 11:22:00,75.7,49.1,30.08,NE,45,3.0,4.0,39,0.00,,,0.00,meteohub,2013-05-11 18:22:00,
2013-05-11 11:27:00,75.7,48.4,30.07,West,270,4.0,4.0,38,0.00,,,0.00,meteohub,2013-05-11 18:27:00,
2013-05-11 11:32:00,76.1,48.0,30.07,SW,225,4.0,4.0,37,0.00,,,0.00,meteohub,2013-05-11 18:32:00,
2013-05-11 11:37:00,75.7,47.7,30.07,SSW,203,4.0,5.0,37,0.00,,,0.00,meteohub,2013-05-11 18:37:00,
2013-05-11 11:42:00,76.3,47.3,30.07,South,180,1.0,5.0,36,0.00,,,0.00,meteohub,2013-05-11 18:42:00,
2013-05-11 11:47:00,76.8,47.8,30.07,NE,45,2.0,5.0,36,0.00,,,0.00,meteohub,2013-05-11 18:47:00,
2013-05-11 11:52:00,77.0,48.7,30.07,SW,225,3.0,4.0,37,0.00,,,0.00,meteohub,2013-05-11 18:52:00,
2013-05-11 11:57:00,77.9,48.7,30.07,SE,135,2.0,3.0,36,0.00,,,0.00,meteohub,2013-05-11 18:57:00,
2013-05-11 12:02:00,78.4,49.3,30.06,South,180,4.0,5.0,36,0.00,,,0.00,meteohub,2013-05-11 19:02:00,
2013-05-11 12:07:00,78.8,48.9,30.07,SE,135,3.0,8.0,35,0.00,,,0.00,meteohub,2013-05-11 19:07:00,
2013-05-11 12:12:00,79.5,48.7,30.06,SE,135,2.0,8.0,34,0.00,,,0.00,meteohub,2013-05-11 19:12:00,
2013-05-11 12:17:00,80.1,48.4,30.06,South,180,4.0,8.0,33,0.00,,,0.00,meteohub,2013-05-11 19:17:00,
2013-05-11 12:22:00,80.2,46.9,30.06,NW,315,3.0,6.0,31,0.00,,,0.00,meteohub,2013-05-11 19:22:00,
2013-05-11 12:27:00,80.6,49.6,30.06,SW,225,6.0,6.0,34,0.00,,,0.00,meteohub,2013-05-11 19:27:00,
2013-05-11 12:32:00,81.3,46.9,30.06,South,180,4.0,6.0,30,0.00,,,0.00,meteohub,2013-05-11 19:32:00,
2013-05-11 12:37:00,81.9,47.3,30.06,South,180,2.0,6.0,30,0.00,,,0.00,meteohub,2013-05-11 19:37:00,
2013-05-11 12:42:00,81.9,46.4,30.06,South,180,4.0,6.0,29,0.00,,,0.00,meteohub,2013-05-11 19:42:00,
2013-05-11 12:47:00,82.0,47.5,30.05,West,270,3.0,5.0,30,0.00,,,0.00,meteohub,2013-05-11 19:47:00,
2013-05-11 12:52:00,82.2,46.8,30.04,SE,135,3.0,4.0,29,0.00,,,0.00,meteohub,2013-05-11 19:52:00,
2013-05-11 12:57:00,82.2,47.7,30.04,ESE,113,4.0,4.0,30,0.00,,,0.00,meteohub,2013-05-11 19:57:00,
2013-05-11 13:02:00,81.7,46.4,30.04,SE,135,3.0,4.0,29,0.00,,,0.00,meteohub,2013-05-11 20:02:00,
2013-05-11 13:07:00,81.0,46.6,30.04,SE,135,3.0,4.0,30,0.00,,,0.00,meteohub,2013-05-11 20:07:00,
2013-05-11 13:12:00,80.6,47.1,30.04,SE,135,2.0,4.0,31,0.00,,,0.00,meteohub,2013-05-11 20:12:00,
2013-05-11 13:17:00,80.8,46.4,30.04,NE,45,3.0,4.0,30,0.00,,,0.00,meteohub,2013-05-11 20:17:00,
2013-05-11 13:22:00,81.1,48.6,30.04,SE,135,2.0,3.0,32,0.00,,,0.00,meteohub,2013-05-11 20:22:00,
2013-05-11 13:27:00,81.7,48.9,30.04,South,180,5.0,5.0,32,0.00,,,0.00,meteohub,2013-05-11 20:27:00,
2013-05-11 13:32:00,82.6,49.8,30.04,NW,315,4.0,5.0,32,0.00,,,0.00,meteohub,2013-05-11 20:32:00,
2013-05-11 13:37:00,81.1,48.6,30.04,West,270,1.0,5.0,32,0.00,,,0.00,meteohub,2013-05-11 20:37:00,
2013-05-11 13:42:00,80.2,48.6,30.04,SW,225,2.0,5.0,33,0.00,,,0.00,meteohub,2013-05-11 20:42:00,
2013-05-11 13:47:00,80.8,49.8,30.03,SW,225,0.0,4.0,34,0.00,,,0.00,meteohub,2013-05-11 20:47:00,
2013-05-11 13:52:00,81.1,50.2,30.04,SW,225,4.0,4.0,34,0.00,,,0.00,meteohub,2013-05-11 20:52:00,
2013-05-11 13:57:00,82.0,50.2,30.03,SE,135,2.0,5.0,33,0.00,,,0.00,meteohub,2013-05-11 20:57:00,
2013-05-11 14:02:00,83.1,50.2,30.03,South,180,3.0,6.0,32,0.00,,,0.00,meteohub,2013-05-11 21:02:00,
2013-05-11 14:07:00,83.8,50.0,30.03,SW,225,3.0,6.0,31,0.00,,,0.00,meteohub,2013-05-11 21:07:00,
2013-05-11 14:12:00,83.3,48.6,30.03,SE,135,2.0,6.0,30,0.00,,,0.00,meteohub,2013-05-11 21:12:00,
2013-05-11 14:17:00,83.5,49.6,30.02,SE,135,2.0,4.0,31,0.00,,,0.00,meteohub,2013-05-11 21:17:00,
2013-05-11 14:22:00,84.6,50.5,30.02,SE,135,4.0,10.0,31,0.00,,,0.00,meteohub,2013-05-11 21:22:00,
2013-05-11 14:27:00,85.5,48.6,30.02,South,180,4.0,10.0,28,0.00,,,0.00,meteohub,2013-05-11 21:27:00,
2013-05-11 14:32:00,85.6,49.8,30.02,SW,225,3.0,10.0,29,0.00,,,0.00,meteohub,2013-05-11 21:32:00,
2013-05-11 14:37:00,85.8,49.8,30.02,SW,225,3.0,8.0,29,0.00,,,0.00,meteohub,2013-05-11 21:37:00,
2013-05-11 14:42:00,85.8,49.8,30.02,East,90,4.0,4.0,29,0.00,,,0.00,meteohub,2013-05-11 21:42:00,
2013-05-11 14:47:00,85.1,50.2,30.01,SE,135,4.0,8.0,30,0.00,,,0.00,meteohub,2013-05-11 21:47:00,
2013-05-11 14:52:00,84.4,50.4,30.02,South,180,2.0,8.0,31,0.00,,,0.00,meteohub,2013-05-11 21:52:00,
2013-05-11 14:57:00,83.8,50.9,30.01,SE,135,2.0,5.0,32,0.00,,,0.00,meteohub,2013-05-11 21:57:00,
2013-05-11 15:02:00,83.7,51.4,30.01,South,180,2.0,5.0,33,0.00,,,0.00,meteohub,2013-05-11 22:02:00,
2013-05-11 15:07:00,83.8,52.5,30.01,SW,225,5.0,5.0,34,0.00,,,0.00,meteohub,2013-05-11 22:07:00,
2013-05-11 15:12:00,84.0,51.8,30.00,SE,135,4.0,5.0,33,0.00,,,0.00,meteohub,2013-05-11 22:12:00,
2013-05-11 15:17:00,84.2,52.0,30.00,SE,135,4.0,6.0,33,0.00,,,0.00,meteohub,2013-05-11 22:17:00,
2013-05-11 15:22:00,84.6,52.3,30.00,South,180,6.0,6.0,33,0.00,,,0.00,meteohub,2013-05-11 22:22:00,
2013-05-11 15:27:00,85.5,52.2,30.00,SE,135,3.0,7.0,32,0.00,,,0.00,meteohub,2013-05-11 22:27:00,
2013-05-11 15:32:00,86.4,51.3,29.99,SW,225,4.0,8.0,30,0.00,,,0.00,meteohub,2013-05-11 22:32:00,
2013-05-11 15:37:00,87.1,50.9,30.00,South,180,5.0,8.0,29,0.00,,,0.00,meteohub,2013-05-11 22:37:00,
2013-05-11 15:42:00,88.5,51.3,29.99,South,180,2.0,8.0,28,0.00,,,0.00,meteohub,2013-05-11 22:42:00,
2013-05-11 15:47:00,89.2,50.9,29.99,South,180,4.0,8.0,27,0.00,,,0.00,meteohub,2013-05-11 22:47:00,
2013-05-11 15:52:00,90.0,49.5,29.99,West,270,5.0,8.0,25,0.00,,,0.00,meteohub,2013-05-11 22:52:00,
2013-05-11 15:58:00,90.9,49.1,29.99,SE,135,5.0,8.0,24,0.00,,,0.00,meteohub,2013-05-11 22:58:00,
2013-05-11 16:03:00,91.2,48.2,29.98,East,90,2.0,8.0,23,0.00,,,0.00,meteohub,2013-05-11 23:03:00,
2013-05-11 16:08:00,91.4,48.4,29.98,East,90,6.0,8.0,23,0.00,,,0.00,meteohub,2013-05-11 23:08:00,
2013-05-11 16:13:00,90.0,48.4,29.98,SE,135,4.0,6.0,24,0.00,,,0.00,meteohub,2013-05-11 23:13:00,
2013-05-11 16:18:00,87.8,48.6,29.98,SE,135,5.0,7.0,26,0.00,,,0.00,meteohub,2013-05-11 23:18:00,
2013-05-11 16:23:00,86.2,49.3,29.98,SE,135,4.0,8.0,28,0.00,,,0.00,meteohub,2013-05-11 23:23:00,
2013-05-11 16:28:00,85.3,50.4,29.97,SE,135,4.0,8.0,30,0.00,,,0.00,meteohub,2013-05-11 23:28:00,
2013-05-11 16:33:00,84.9,50.9,29.98,SW,225,4.0,8.0,31,0.00,,,0.00,meteohub,2013-05-11 23:33:00,
2013-05-11 16:38:00,84.7,50.7,29.98,SW,225,4.0,5.0,31,0.00,,,0.00,meteohub,2013-05-11 23:38:00,
2013-05-11 16:43:00,84.9,50.9,29.97,SE,135,4.0,8.0,31,0.00,,,0.00,meteohub,2013-05-11 23:43:00,
2013-05-11 16:49:00,84.9,50.9,29.97,SE,135,4.0,8.0,31,0.00,,,0.00,meteohub,2013-05-11 23:49:00,
2013-05-11 16:54:00,84.6,50.5,29.97,South,180,5.0,8.0,31,0.00,,,0.00,meteohub,2013-05-11 23:54:00,
2013-05-11 16:59:00,84.6,50.5,29.97,South,180,3.0,6.0,31,0.00,,,0.00,meteohub,2013-05-11 23:59:00,
2013-05-11 17:04:00,85.5,51.4,29.97,SE,135,4.0,6.0,31,0.00,,,0.00,meteohub,2013-05-12 00:04:00,
2013-05-11 17:09:00,85.6,51.6,29.97,SE,135,3.0,6.0,31,0.00,,,0.00,meteohub,2013-05-12 00:09:00,
2013-05-11 17:14:00,84.6,50.5,29.96,SE,135,2.0,7.0,31,0.00,,,0.00,meteohub,2013-05-12 00:14:00,
2013-05-11 17:19:00,84.2,51.1,29.96,South,180,4.0,7.0,32,0.00,,,0.00,meteohub,2013-05-12 00:19:00,
2013-05-11 17:24:00,84.2,51.1,29.96,SE,135,3.0,7.0,32,0.00,,,0.00,meteohub,2013-05-12 00:24:00,
2013-05-11 17:29:00,83.5,50.5,29.96,South,180,4.0,6.0,32,0.00,,,0.00,meteohub,2013-05-12 00:29:00,
2013-05-11 17:34:00,82.9,50.9,29.96,SE,135,3.0,5.0,33,0.00,,,0.00,meteohub,2013-05-12 00:34:00,
2013-05-11 17:40:00,82.4,51.3,29.96,SE,135,3.0,5.0,34,0.00,,,0.00,meteohub,2013-05-12 00:40:00,
2013-05-11 17:45:00,82.4,52.0,29.95,South,180,3.0,5.0,35,0.00,,,0.00,meteohub,2013-05-12 00:45:00,
2013-05-11 17:50:00,82.6,52.2,29.95,South,180,2.0,5.0,35,0.00,,,0.00,meteohub,2013-05-12 00:50:00,
2013-05-11 17:55:00,82.9,52.5,29.95,WNW,293,4.0,4.0,35,0.00,,,0.00,meteohub,2013-05-12 00:55:00,
2013-05-11 18:00:00,82.9,52.5,29.95,South,180,3.0,7.0,35,0.00,,,0.00,meteohub,2013-05-12 01:00:00,
2013-05-11 18:05:00,83.1,51.8,29.95,South,180,2.0,7.0,34,0.00,,,0.00,meteohub,2013-05-12 01:05:00,
2013-05-11 18:10:00,83.1,52.7,29.95,SW,225,4.0,5.0,35,0.00,,,0.00,meteohub,2013-05-12 01:10:00,
2013-05-11 18:15:00,82.9,51.6,29.95,South,180,4.0,8.0,34,0.00,,,0.00,meteohub,2013-05-12 01:15:00,
2013-05-11 18:21:00,82.6,52.2,29.94,South,180,3.0,8.0,35,0.00,,,0.00,meteohub,2013-05-12 01:21:00,
2013-05-11 18:26:00,81.9,53.1,29.95,SW,225,4.0,8.0,37,0.00,,,0.00,meteohub,2013-05-12 01:26:00,
2013-05-11 18:31:00,81.1,51.6,29.94,SW,225,2.0,7.0,36,0.00,,,0.00,meteohub,2013-05-12 01:31:00,
2013-05-11 18:36:00,80.8,51.3,29.94,SW,225,2.0,5.0,36,0.00,,,0.00,meteohub,2013-05-12 01:36:00,
2013-05-11 18:41:00,80.2,50.9,29.94,SE,135,1.0,5.0,36,0.00,,,0.00,meteohub,2013-05-12 01:41:00,
2013-05-11 18:46:00,79.3,50.7,29.94,NW,315,2.0,4.0,37,0.00,,,0.00,meteohub,2013-05-12 01:46:00,
2013-05-11 18:51:00,78.6,50.9,29.94,NW,315,0.0,4.0,38,0.00,,,0.00,meteohub,2013-05-12 01:51:00,
2013-05-11 18:56:00,78.1,51.8,29.94,NW,315,1.0,2.0,40,0.00,,,0.00,meteohub,2013-05-12 01:56:00,
2013-05-11 19:01:00,77.5,52.0,29.94,SE,135,0.0,2.0,41,0.00,,,0.00,meteohub,2013-05-12 02:01:00,
2013-05-11 19:07:00,77.0,52.2,29.94,SE,135,1.0,2.0,42,0.00,,,0.00,meteohub,2013-05-12 02:07:00,
2013-05-11 19:12:00,76.5,52.3,29.94,North,0,2.0,2.0,43,0.00,,,0.00,meteohub,2013-05-12 02:12:00,
2013-05-11 19:17:00,75.9,52.5,29.94,NE,45,3.0,3.0,44,0.00,,,0.00,meteohub,2013-05-12 02:17:00,
2013-05-11 19:22:00,75.4,52.5,29.94,North,0,2.0,3.0,45,0.00,,,0.00,meteohub,2013-05-12 02:22:00,
2013-05-11 19:27:00,74.8,52.7,29.94,SE,135,1.0,3.0,46,0.00,,,0.00,meteohub,2013-05-12 02:27:00,
2013-05-11 19:32:00,74.5,52.9,29.94,West,270,1.0,3.0,47,0.00,,,0.00,meteohub,2013-05-12 02:32:00,
2013-05-11 19:37:00,74.3,53.4,29.95,West,270,0.0,3.0,48,0.00,,,0.00,meteohub,2013-05-12 02:37:00,
2013-05-11 19:42:00,73.8,52.3,29.94,SW,225,2.0,2.0,47,0.00,,,0.00,meteohub,2013-05-12 02:42:00,
2013-05-11 19:47:00,73.2,52.3,29.94,West,270,0.0,2.0,48,0.00,,,0.00,meteohub,2013-05-12 02:47:00,
2013-05-11 19:52:00,72.7,51.8,29.94,SW,225,2.0,2.0,48,0.00,,,0.00,meteohub,2013-05-12 02:52:00,
2013-05-11 19:57:00,72.1,52.0,29.94,West,270,1.0,2.0,49,0.00,,,0.00,meteohub,2013-05-12 02:57:00,
2013-05-11 20:02:00,71.4,51.3,29.94,NW,315,0.0,2.0,49,0.00,,,0.00,meteohub,2013-05-12 03:02:00,
2013-05-11 20:07:00,71.1,51.4,29.94,West,270,0.0,2.0,50,0.00,,,0.00,meteohub,2013-05-12 03:07:00,
2013-05-11 20:12:00,70.7,51.1,29.94,West,270,0.0,2.0,50,0.00,,,0.00,meteohub,2013-05-12 03:12:00,
2013-05-11 20:17:00,70.5,51.4,29.94,SW,225,0.0,2.0,51,0.00,,,0.00,meteohub,2013-05-12 03:17:00,
2013-05-11 20:22:00,70.3,51.8,29.94,South,180,1.0,2.0,52,0.00,,,0.00,meteohub,2013-05-12 03:22:00,
2013-05-11 20:27:00,70.2,52.2,29.94,SW,225,2.0,2.0,53,0.00,,,0.00,meteohub,2013-05-12 03:27:00,
2013-05-11 20:32:00,69.6,51.8,29.94,South,180,2.0,2.0,53,0.00,,,0.00,meteohub,2013-05-12 03:32:00,
2013-05-11 20:37:00,69.3,51.4,29.94,South,180,1.0,2.0,53,0.00,,,0.00,meteohub,2013-05-12 03:37:00,
2013-05-11 20:42:00,68.7,51.4,29.95,South,180,1.0,2.0,54,0.00,,,0.00,meteohub,2013-05-12 03:42:00,
2013-05-11 20:47:00,68.4,51.6,29.95,South,180,0.0,2.0,55,0.00,,,0.00,meteohub,2013-05-12 03:47:00,
2013-05-11 20:52:00,67.8,51.1,29.96,South,180,0.0,1.0,55,0.00,,,0.00,meteohub,2013-05-12 03:52:00,
2013-05-11 20:57:00,67.5,51.3,29.96,South,180,0.0,1.0,56,0.00,,,0.00,meteohub,2013-05-12 03:57:00,
2013-05-11 21:01:00,67.3,51.4,29.96,South,180,0.0,0.0,57,0.00,,,0.00,meteohub,2013-05-12 04:01:00,
2013-05-11 21:02:00,67.3,51.4,29.96,South,180,0.0,0.0,57,0.00,,,0.00,meteohub,2013-05-12 04:02:00,
2013-05-11 21:07:00,67.1,51.4,29.97,South,180,0.0,0.0,57,0.00,,,0.00,meteohub,2013-05-12 04:07:00,
2013-05-11 21:12:00,66.9,51.3,29.97,South,180,0.0,1.0,57,0.00,,,0.00,meteohub,2013-05-12 04:12:00,
2013-05-11 21:17:00,66.9,51.3,29.97,SW,225,0.0,1.0,57,0.00,,,0.00,meteohub,2013-05-12 04:17:00,
2013-05-11 21:23:00,66.9,51.3,29.97,NE,45,0.0,1.0,57,0.00,,,0.00,meteohub,2013-05-12 04:23:00,
2013-05-11 21:28:00,66.7,51.1,29.98,NE,45,0.0,0.0,57,0.00,,,0.00,meteohub,2013-05-12 04:28:00,
2013-05-11 21:33:00,66.6,50.9,29.98,NE,45,0.0,0.0,57,0.00,,,0.00,meteohub,2013-05-12 04:33:00,
2013-05-11 21:38:00,66.4,51.1,29.98,NE,45,0.0,0.0,58,0.00,,,0.00,meteohub,2013-05-12 04:38:00,
2013-05-11 21:43:00,66.2,51.4,29.98,NE,45,0.0,0.0,59,0.00,,,0.00,meteohub,2013-05-12 04:43:00,
2013-05-11 21:48:00,66.2,51.4,29.98,NE,45,0.0,0.0,59,0.00,,,0.00,meteohub,2013-05-12 04:48:00,
2013-05-11 21:53:00,66.2,51.4,29.99,NE,45,0.0,0.0,59,0.00,,,0.00,meteohub,2013-05-12 04:53:00,
2013-05-11 21:58:00,66.2,51.4,29.99,NE,45,2.0,0.0,59,0.00,,,0.00,meteohub,2013-05-12 04:58:00,
2013-05-11 22:03:00,66.0,51.8,29.99,North,0,0.0,2.0,60,0.00,,,0.00,meteohub,2013-05-12 05:03:00,
2013-05-11 22:08:00,66.2,52.0,29.99,NW,315,0.0,2.0,60,0.00,,,0.00,meteohub,2013-05-12 05:08:00,
2013-05-11 22:14:00,66.2,52.0,29.99,NE,45,1.0,2.0,60,0.00,,,0.00,meteohub,2013-05-12 05:14:00,
2013-05-11 22:19:00,66.4,51.6,29.99,East,90,3.0,3.0,59,0.00,,,0.00,meteohub,2013-05-12 05:19:00,
2013-05-11 22:24:00,66.0,51.3,29.99,West,270,2.0,4.0,59,0.00,,,0.00,meteohub,2013-05-12 05:24:00,
2013-05-11 22:29:00,66.0,51.3,29.98,West,270,0.0,4.0,59,0.00,,,0.00,meteohub,2013-05-12 05:29:00,
2013-05-11 22:34:00,65.8,50.7,29.99,NE,45,2.0,4.0,58,0.00,,,0.00,meteohub,2013-05-12 05:34:00,
2013-05-11 22:39:00,65.5,50.7,29.99,North,0,2.0,3.0,59,0.00,,,0.00,meteohub,2013-05-12 05:39:00,
2013-05-11 22:44:00,65.3,50.5,29.99,NE,45,2.0,4.0,59,0.00,,,0.00,meteohub,2013-05-12 05:44:00,
2013-05-11 22:49:00,65.1,50.9,29.99,East,90,2.0,4.0,60,0.00,,,0.00,meteohub,2013-05-12 05:49:00,
2013-05-11 22:54:00,65.1,50.4,29.99,SE,135,0.0,4.0,59,0.00,,,0.00,meteohub,2013-05-12 05:54:00,
2013-05-11 23:00:00,64.8,50.2,29.98,ESE,113,0.0,3.0,59,0.00,,,0.00,meteohub,2013-05-12 06:00:00,
2013-05-11 23:05:00,64.4,50.2,29.99,SE,135,1.0,2.0,60,0.00,,,0.00,meteohub,2013-05-12 06:05:00,
2013-05-11 23:10:00,64.2,50.5,29.98,NE,45,0.0,2.0,61,0.00,,,0.00,meteohub,2013-05-12 06:10:00,
2013-05-11 23:15:00,64.0,50.4,29.98,North,0,0.0,2.0,61,0.00,,,0.00,meteohub,2013-05-12 06:15:00,
2013-05-11 23:20:00,63.7,50.0,29.98,North,0,0.0,2.0,61,0.00,,,0.00,meteohub,2013-05-12 06:20:00,
2013-05-11 23:25:00,63.3,50.0,29.98,West,270,0.0,1.0,62,0.00,,,0.00,meteohub,2013-05-12 06:25:00,
2013-05-11 23:30:00,63.0,50.2,29.98,West,270,0.0,1.0,63,0.00,,,0.00,meteohub,2013-05-12 06:30:00,
2013-05-11 23:35:00,62.8,50.4,29.99,SW,225,0.0,2.0,64,0.00,,,0.00,meteohub,2013-05-12 06:35:00,
2013-05-11 23:40:00,62.6,50.2,29.98,SW,225,1.0,2.0,64,0.00,,,0.00,meteohub,2013-05-12 06:40:00,
2013-05-11 23:45:00,62.6,50.7,29.98,SW,225,0.0,2.0,65,0.00,,,0.00,meteohub,2013-05-12 06:45:00,
2013-05-11 23:51:00,62.4,50.5,29.99,SW,225,0.0,2.0,65,0.00,,,0.00,meteohub,2013-05-12 06:51:00,
2013-05-11 23:56:00,62.2,50.7,29.99,SW,225,0.0,2.0,66,0.00,,,0.00,meteohub,2013-05-12 06:56:00,